Location: Antioch
(38.0049°N, 121.8058°W)
Time: 03:34:32
(UTC+00:00)

Cosmos 2208 Rocket - Pass Details

Date: 27 May 2026
Orbit: 751 x 800 km, 74.0° (Epoch: 9 June)

Event Time Altitude Azimuth Distance (km) Brightness Sun altitude
Exits shadow 06:50:24 22° 66° (ENE) 1,632 5.7 -28.2°
Drops below altitude 10° 06:52:52 10° 43° (NE) 2,303 6.8 -28.3°
Sets 06:55:31 0° 31° (NNE) 3,226 7.8 -28.5°
